Wright-Patt AFB, OH

1:39 AM EST on February 23, 2018 (GMT -0500)
Wright-Patterson Air Force Base

Weather History for KFFO - December, 2011

Change the Weather History Date:

Tuesday, December 13, 2011

  Actual Average Record
Temperature  
Mean Temperature 35 °F -  
Max Temperature 44 °F 39 °F 62 °F (2015)
Min Temperature 26 °F 25 °F 10 °F (2005)
Degree Days  
Heating Degree Days 30    
Moisture  
Dew Point 32 °F    
Average Humidity 79    
Maximum Humidity 94    
Minimum Humidity 66    
Precipitation  
Precipitation 0.00 in - - ()
Sea Level Pressure  
Sea Level Pressure 30.44 in    
Wind  
Wind Speed 1 mph (SSE)    
Max Wind Speed 6 mph    
Max Gust Speed -    
Visibility 10 miles    
Events Rain    
Averages and records for this station are not official NWS values.
T = Trace of Precipitation, MM = Missing Value Source: NWS Daily Summary

Daily Weather History Graph

Daily Weather History Graph

Search for Another Location

Airport or City:

Trip Planner

Search our weather history database for the weather conditions in past years. The results will help you decide how hot, cold, wet, or windy it might be!

Date:

Astronomy

Dec. 13, 2011 Rise Set
Actual Time 7:48 AM EST 5:11 PM EST
Civil Twilight 7:18 AM EST 5:42 PM EST
Nautical Twilight 6:44 AM EST 6:16 PM EST
Astronomical Twilight 6:11 AM EST 6:49 PM EST
Moon 8:25 PM EST (12/13) 9:58 AM EST (12/13)
Length of Visible Light 10h 23m
Length of Day
9h 23m
Waning Gibbous, 90% of the Moon is Illuminated
Dec 13
Waning Gibbous
Dec 17
Last Quarter
Dec 24
New
Jan 1
First Quarter
Jan 9
Full

Hourly Weather History & Observations

Time (EST) Temp. Windchill Dew Point Humidity Pressure Visibility Wind Dir Wind Speed Gust Speed Precip Events Conditions
12:55 AM 26.2 °F - 22.8 °F 87% 30.46 in 10.0 mi Calm Calm - N/A   Scattered Clouds
1:55 AM 27.5 °F - 24.3 °F 88% 30.45 in 10.0 mi Calm Calm - N/A   Mostly Cloudy
2:55 AM 26.6 °F - 23.5 °F 88% 30.47 in 10.0 mi Calm Calm - N/A   Mostly Cloudy
3:55 AM 28.0 °F - 25.5 °F 90% 30.47 in 10.0 mi Calm Calm - N/A   Mostly Cloudy
4:55 AM 28.6 °F - 26.4 °F 92% 30.46 in 10.0 mi Calm Calm - N/A   Overcast
5:55 AM 29.5 °F - 26.4 °F 88% 30.46 in 10.0 mi Calm Calm - N/A   Overcast
6:55 AM 28.4 °F - 26.1 °F 91% 30.48 in 10.0 mi Calm Calm - N/A   Mostly Cloudy
7:55 AM 27.1 °F 23.2 °F 25.5 °F 94% 30.47 in 10.0 mi East 3.5 mph - N/A   Mostly Cloudy
8:55 AM 31.5 °F 28.1 °F 28.2 °F 88% 30.47 in 10.0 mi SE 3.5 mph - N/A   Mostly Cloudy
9:55 AM 34.7 °F - 30.0 °F 83% 30.50 in 10.0 mi Calm Calm - N/A   Overcast
10:55 AM 38.3 °F - 31.1 °F 75% 30.49 in 10.0 mi Calm Calm - N/A   Overcast
11:55 AM 41.0 °F - 32.0 °F 70% 30.48 in 10.0 mi Calm Calm - N/A   Mostly Cloudy
12:20 PM 42.8 °F 40.1 °F 32.0 °F 66% 30.48 in 10.0 mi West 4.6 mph - N/A Rain Light Rain
12:55 PM 42.4 °F - 35.1 °F 75% 30.47 in 10.0 mi Calm Calm - 0.00 in Rain Light Rain
1:09 PM 42.8 °F - 33.8 °F 70% 30.46 in 10.0 mi Calm Calm - N/A   Overcast
1:55 PM 43.5 °F - 33.4 °F 68% 30.44 in 10.0 mi Calm Calm - 0.00 in   Overcast
2:00 PM 42.8 °F - 32.0 °F 66% 30.40 in 10.0 mi South 2.3 mph - N/A   Overcast
2:55 PM 43.7 °F 42.1 °F 34.5 °F 70% 30.42 in 10.0 mi SSW 3.5 mph - N/A   Overcast
3:55 PM 44.6 °F 42.2 °F 36.1 °F 72% 30.42 in 10.0 mi SW 4.6 mph - N/A   Overcast
4:51 PM 44.6 °F - 35.6 °F 71% 30.42 in 10.0 mi Calm Calm - N/A   Overcast
4:55 PM 43.9 °F 42.3 °F 35.2 °F 72% 30.43 in 10.0 mi SSE 3.5 mph - N/A   Overcast
5:03 PM 44.6 °F 43.1 °F 35.6 °F 71% 30.43 in 10.0 mi SSE 3.5 mph - N/A   Overcast
5:55 PM 43.0 °F 41.3 °F 35.8 °F 76% 30.42 in 10.0 mi SSE 3.5 mph - N/A   Overcast
6:26 PM 42.8 °F 39.3 °F 35.6 °F 76% 30.41 in 10.0 mi SSE 5.8 mph - N/A   Overcast
6:42 PM 42.8 °F 40.1 °F 35.6 °F 76% 30.41 in 10.0 mi SSE 4.6 mph - N/A   Overcast
6:47 PM 42.8 °F 40.1 °F 35.6 °F 76% 30.41 in 10.0 mi South 4.6 mph - N/A   Overcast
6:55 PM 42.4 °F 40.7 °F 36.0 °F 78% 30.42 in 10.0 mi South 3.5 mph - N/A   Overcast
7:48 PM 42.8 °F - 37.4 °F 81% 30.42 in 10.0 mi Calm Calm - N/A   Overcast
7:55 PM 42.3 °F - 36.5 °F 80% 30.43 in 10.0 mi Calm Calm - N/A   Overcast
8:33 PM 41.0 °F - 35.6 °F 81% 30.42 in 10.0 mi Calm Calm - N/A   Overcast
8:55 PM 41.5 °F 39.6 °F 36.3 °F 82% 30.41 in 10.0 mi SE 3.5 mph - N/A   Overcast
9:55 PM 41.9 °F 40.0 °F 36.1 °F 80% 30.39 in 10.0 mi SSE 3.5 mph - N/A   Overcast
10:55 PM 41.9 °F 40.0 °F 36.5 °F 81% 30.38 in 10.0 mi SSE 3.5 mph - N/A   Overcast
11:55 PM 42.1 °F - 36.3 °F 80% 30.36 in 10.0 mi Calm Calm - N/A   Overcast